Flag for U.S.A. Weather past 2 weeks in St. Augustine, Florida, U.S.A.

Now
75 °F

Overcast.


Feels Like: 73 °F
Forecast: 71 / 85 °F
Wind: 6 mph from Southwest

Location: St. Augustine Airport

Current Time: Sep 17, 2014 at 1:58:39 AM

Latest Report: Sep 17, 2014 at 12:58 AM


Visibility: 10 mi

Pressure: 29.95 "Hg

Humidity: 94%

Dew point: 73 °F

Location of St. AugustineLocation

Historic Weather in St. Augustine — Graph

°F

St. Augustine temperature yesterday

Maximum temperature yesterday: 85 °F (at 1:58 PM)
Minimum temperature yesterday: 75 °F (at 3:58 AM)
Average temperature yesterday: 79 °F

Past Weeks' High & Low Weather Summary

 TemperatureHumidityPressure
High90 °F (Sep 2, 1:58 PM)97% (Sep 6, 12:58 AM)30.17 "Hg (Sep 6, 12:58 AM)
Low73 °F (Sep 6, 12:58 AM)55% (Sep 15, 2:58 PM)29.96 "Hg (Sep 7, 4:58 PM)
Average80 °F82%30.06 "Hg
* Reported Sep 1 11:58 PM — Sep 16 11:58 PM, St. Augustine, Weather by CustomWeather, © 2014

Note: Actual official high and low records may vary slightly from our data, if they occured in-between our weather recording intervals... More about our weather records

Advertising

St. Augustine weather history for previous 24 hours

 ConditionsComfort  
Time TempWeatherWind HumidityBarometerVisibility
11:58 PM
Sep 16
75 °FPassing clouds.6 mph94%29.96 "Hg10 mi
10:58 PM75 °FPassing clouds.6 mph96%29.97 "Hg10 mi
9:58 PM76 °FClear.5 mph91%29.96 "Hg10 mi
8:58 PM76 °FLight rain. Passing clouds.5 mph94%29.97 "Hg10 mi
7:58 PM78 °FPassing clouds.3 mph84%29.98 "Hg10 mi
6:58 PM79 °FSunny.7 mph82%29.98 "Hg10 mi
5:58 PM80 °FPassing clouds.7 mph81%29.97 "Hg10 mi
4:58 PM82 °FScattered clouds.8 mph77%29.97 "Hg10 mi
3:58 PM85 °FBroken clouds.13 mph68%29.98 "Hg10 mi
2:58 PM84 °FThundershowers. Partly sunny.8 mph72%30.00 "Hg10 mi
1:58 PM85 °FScattered clouds.14 mph72%30.02 "Hg10 mi
12:58 PM83 °FPassing clouds.9 mph74%30.03 "Hg10 mi
11:58 AM83 °FScattered clouds.8 mph74%30.06 "Hg10 mi
10:58 AM82 °FSunny.8 mph77%30.07 "Hg10 mi
9:58 AM81 °FSunny.9 mph79%30.08 "Hg10 mi
8:58 AM78 °FSunny.7 mph87%30.08 "Hg10 mi
7:58 AM76 °FPassing clouds.5 mph94%30.08 "Hg10 mi
6:58 AM76 °FLight rain. Partly cloudy.7 mph94%30.08 "Hg9 mi
5:58 AM76 °FClear.5 mph94%30.08 "Hg10 mi
4:58 AM76 °FClear.7 mph94%30.07 "Hg10 mi
3:58 AM75 °FClear.6 mph94%30.08 "Hg10 mi
2:58 AM76 °FClear.5 mph91%30.09 "Hg10 mi
1:58 AM76 °FClear.3 mph91%30.10 "Hg10 mi
Weather by CustomWeather, © 2014

See weather overviewHow to use our weather pages